STARLINK-31983

Last updated on Fri Sep 20 2024 00:02:03 GMT+0000 (Coordinated Universal Time)

1 60602U 24150V 24263.28852979 -.00004198 00000+0 -95051-4 0 9990 2 60602 53.1585 280.8489 0001308 67.9359 292.1784 15.39612558 5804

Satellite not in orbit

STARLINK-31983